This demonstration page uses our WeatherBlox Daily Observations layout. Learn more.

Left ArrowRight Arrow

39.12711, -84.51439

Hourly Observations for June 9, 2021

Temp ( °F °C ) Dew Point ( °F °C ) Humidity (%) Winds ( mph kmh ) Pressure ( in mb ) Visibility ( mi km ) Precip ( " mm )
12:53 am 00:53 Mostly Clear 71 21.7 69 20.6 94 94 N N/A 30.07 1018 10 16 0.00 0.00
1:53 am 01:53 Mostly Cloudy with Rain 71 21.7 69 20.6 94 94 N N/A 30.08 1019 4 6 0.03 0.76
2:53 am 02:53 Mostly Cloudy with Light Rain 71 21.7 69 20.6 94 94 N N/A 30.06 1018 10 16 0.03 0.76
3:53 am 03:53 Mostly Cloudy with Light Rain 70 21.1 69 20.6 97 97 N N/A 30.06 1018 8 13 0.01 0.25
4:53 am 04:53 Cloudy with Light Rain 70 21.1 69 20.6 97 97 N N/A 30.04 1017 6 10 0.02 0.51
5:21 am 05:21 Cloudy 70 21.1 69 20.6 97 97 N N/A 30.04 1017 7 11 0.00 0.00
5:53 am 05:53 Cloudy 70 21.1 69 20.6 97 97 NNE 3 6 30.04 1017 9 14 0.00 0.00
6:39 am 06:39 Cloudy with Mist and Fog 69 20.6 68 20 96 96 N N/A 30.04 1017 2 3 0.00 0.00
6:48 am 06:48 Cloudy with Light Rain 70 21 68 20 94 94 N N/A 30.05 1017 1 1 0.00 0.00
6:53 am 06:53 Cloudy with Light Rain 69 20.6 68 20 96 96 S 3 6 30.05 1018 5 8 0.00 0.00
7:53 am 07:53 Cloudy with Heavy Rain 71 21.7 69 20.6 94 94 VRB 3 6 30.06 1018 5 8 0.13 3.30
8:53 am 08:53 Cloudy with Mist and Fog 72 22.2 69 20.6 91 91 N N/A 30.06 1018 6 10 0.00 0.00
9:53 am 09:53 Cloudy with Light Rain 72 22.2 69 20.6 91 91 S 6 9 30.07 1018 7 11 0.00 0.00
10:16 am 10:16 Cloudy 73 22.8 69 20.6 87 87 SE 6 9 30.06 1018 7 11 0.00 0.00
10:53 am 10:53 Cloudy 73 22.8 69 20.6 87 87 SSE 6 9 30.07 1018 7 11 0.00 0.00
11:53 am 11:53 Cloudy 72 22.2 69 20.6 91 91 SE 5 7 30.08 1019 7 11 N/A
12:53 pm 12:53 Cloudy with Light Rain 74 23.3 69 20.6 85 85 SSE 10 17 30.06 1018 7 11 0.01 0.25
1:53 pm 13:53 Cloudy with Light Rain 73 22.8 69 20.6 87 87 SE 9 15 30.05 1018 7 11 0.00 0.00
2:00 pm 14:00 Cloudy with Light Rain 73 22.8 69 20.6 87 87 SSE 7 11 30.04 1017 8 13 0.00 0.00
2:53 pm 14:53 Cloudy with Light Rain 73 22.8 70 21.1 90 90 SSE 7 11 30.04 1017 7 11 0.01 0.25
3:53 pm 15:53 Cloudy with Rain 74 23.3 71 21.7 91 91 SSE 5 7 30.03 1017 3 5 0.05 1.27
4:53 pm 16:53 Cloudy with Light Rain 76 24.4 71 21.7 85 85 SSE 6 9 30.00 1016 10 16 0.02 0.51
5:30 pm 17:30 Cloudy 76 24.4 71 21.7 85 85 S 6 9 29.98 1015 10 16 0.00 0.00
5:53 pm 17:53 Cloudy 75 23.9 70 21.1 84 84 ESE 5 7 29.98 1015 10 16 0.00 0.00
6:53 pm 18:53 Cloudy 75 23.9 71 21.7 88 88 E 3 6 29.97 1015 10 16 0.00 0.00
7:53 pm 19:53 Cloudy 74 23.3 70 21.1 88 88 SSE 6 9 29.98 1015 10 16 N/A
8:10 pm 20:10 Cloudy 74 23.3 70 21.1 88 88 ESE 3 6 29.98 1015 10 16 N/A
8:17 pm 20:17 Cloudy 74 23.3 70 21.1 88 88 ESE 5 7 29.98 1015 10 16 N/A
8:53 pm 20:53 Cloudy 73 22.8 68 20 84 84 N N/A 29.98 1015 10 16 N/A
9:00 pm 21:00 Partly Cloudy 73 22.8 68 20 84 84 N N/A 29.98 1015 10 16 N/A
9:53 pm 21:53 Partly Cloudy 70 21.1 68 20 93 93 N N/A 29.99 1016 8 13 N/A
10:53 pm 22:53 Mostly Cloudy 70 21.1 68 20 93 93 N N/A 30.01 1016 10 16 N/A
11:53 pm 23:53 Cloudy 70 21.1 68 20 93 93 N N/A 30.00 1016 10 16 N/A

Powered by AerisWeather